Flag for U.S.A. Weather past 2 weeks in Decatur, Illinois, U.S.A.

Now
81 °F

Sunny.


Feels Like: N/A
Forecast: 64 / 89 °F
Wind: 14 mph from Southwest

Location: Decatur Airport

Current Time: Jul 22, 2014 at 1:09:32 PM

Latest Report: Jul 22, 2014 at 11:54 AM


Visibility: 8 mi

Pressure: 30.08 "Hg

Humidity: N/A

Dew point: N/A

Location of DecaturLocation

Historic Weather in Decatur — Graph

°F

Decatur temperature yesterday

Maximum temperature yesterday: 83 °F (at 1:54 PM)
Minimum temperature yesterday: 61 °F (at 3:54 AM)
Average temperature yesterday: 73 °F

Past Weeks' High & Low Weather Summary

 TemperatureHumidityPressure
High88 °F (Jul 7, 2:54 PM)97% (Jul 19, 4:54 AM)30.20 "Hg (Jul 19, 4:54 AM)
Low53 °F (Jul 19, 5:54 AM)36% (Jul 10, 2:54 PM)29.68 "Hg (Jul 8, 4:54 AM)
Average71 °F72%30.01 "Hg
* Reported Jul 7 10:54 AM — Jul 22 10:54 AM, Decatur, Weather by CustomWeather, © 2014

Note: Actual official high and low records may vary slightly from our data, if they occured in-between our weather recording intervals... More about our weather records

Advertising

Decatur weather history for previous 24 hours

 ConditionsComfort  
Time TempWeatherWind HumidityBarometerVisibility
10:54 AM
Jul 22
81 °FSunny.12 mphN/A30.09 "Hg10 mi
9:54 AM79 °FSunny.9 mph74%30.08 "Hg10 mi
8:54 AM77 °FSunny.10 mph71%30.07 "Hg8 mi
7:54 AM74 °FSunny.6 mph76%30.08 "Hg8 mi
6:54 AM69 °FSunny.3 mph84%30.08 "Hg6 mi
5:54 AM67 °FFog.5 mph87%30.08 "Hg5 mi
4:54 AM67 °FClear.6 mph87%30.08 "Hg7 mi
3:54 AM67 °FClear.3 mph87%30.07 "Hg8 mi
2:54 AM68 °FClear.5 mph84%30.07 "Hg9 mi
1:54 AM69 °FClear.No wind84%30.06 "Hg9 mi
12:54 AM70 °FClear.3 mph84%30.06 "Hg10 mi
11:54 PM
Jul 21
70 °FClear.6 mph84%30.06 "Hg10 mi
10:54 PM71 °FClear.6 mph84%30.07 "Hg10 mi
9:54 PM72 °FClear.6 mph81%30.08 "Hg10 mi
8:54 PM73 °FSunny.5 mph81%30.06 "Hg10 mi
7:54 PM77 °FSunny.6 mph74%30.05 "Hg10 mi
6:54 PM81 °FSunny.6 mph62%30.06 "Hg10 mi
5:54 PM83 °FSunny.8 mph57%30.06 "Hg10 mi
4:54 PM83 °FSunny.7 mph59%30.06 "Hg10 mi
3:54 PM83 °FSunny.5 mph55%30.06 "Hg10 mi
2:54 PM83 °FScattered clouds.8 mph57%30.07 "Hg10 mi
1:54 PM83 °FPartly sunny.7 mph57%30.09 "Hg10 mi
Weather by CustomWeather, © 2014

See weather overviewHow to use our weather pages